Weather History for Altus, OK

Change the Weather History Date:

Wednesday, January 11, 2012

  Actual Average (KLTS) Record (KLTS)
Temperature  
Mean Temperature 44 °F -  
Max Temperature 59 °F 48 °F 75 °F (1999)
Min Temperature 30 °F 26 °F 10 °F (2011)
Degree Days  
Heating Degree Days 20    
Moisture  
Dew Point 30 °F    
Average Humidity 67    
Maximum Humidity 87    
Minimum Humidity 39    
Precipitation  
Precipitation 0.00 in - - ()
Sea Level Pressure  
Sea Level Pressure 29.75 in    
Wind  
Wind Speed 7 mph (NNE)    
Max Wind Speed 38 mph    
Max Gust Speed 46 mph    
Visibility 10 miles    
Events      
Averages and records for this station are not official NWS values.
T = Trace of Precipitation, MM = Missing Value Source: NWS Daily Summary

Daily Weather History Graph

Daily Weather History Graph

Search for Another Location

Airport:

Trip Planner

Search our weather history database for the weather conditions in past years. The results will help you decide how hot, cold, wet, or windy it might be!

Date:

Astronomy

Jan. 11, 2012 Rise Set
Actual Time 7:44 AM CST 5:45 PM CST
Civil Twilight 7:17 AM CST 6:13 PM CST
Nautical Twilight 6:46 AM CST 6:44 PM CST
Astronomical Twilight 6:15 AM CST 7:14 PM CST
Moon 8:37 PM CST (1/11) 9:05 AM CST (1/11)
Length of Visible Light 10h 55m
Length of Day
10h 00m
Waning Gibbous, 93% of the Moon is Illuminated
Jan 11
Waning Gibbous
Jan 16
Last Quarter
Jan 23
New
Jan 30
First Quarter
Feb 7
Full

Hourly Weather History & Observations

Time (CST) Temp. Windchill Dew Point Humidity Pressure Visibility Wind Dir Wind Speed Gust Speed Precip Events Conditions
12:15 AM 39.2 °F 37.0 °F 28.4 °F 65% 29.80 in 10.0 mi SW 3.5 mph - N/A   Clear
12:35 AM 37.4 °F - 28.4 °F 70% 29.80 in 10.0 mi Calm Calm - N/A   Clear
12:55 AM 35.6 °F - 26.6 °F 70% 29.79 in 10.0 mi Calm Calm - N/A   Clear
1:15 AM 37.4 °F - 26.6 °F 65% 29.79 in 10.0 mi Calm Calm - N/A   Clear
1:35 AM 33.8 °F - 26.6 °F 75% 29.78 in 10.0 mi Calm Calm - N/A   Clear
1:55 AM 35.6 °F - 26.6 °F 70% 29.77 in 10.0 mi Calm Calm - N/A   Clear
2:15 AM 35.6 °F - 26.6 °F 70% 29.77 in 10.0 mi Calm Calm - N/A   Clear
2:35 AM 35.6 °F - 26.6 °F 70% 29.76 in 10.0 mi Calm Calm - N/A   Clear
3:15 AM 32.0 °F - 26.6 °F 80% 29.75 in 10.0 mi Calm Calm - N/A   Clear
3:35 AM 33.8 °F - 26.6 °F 75% 29.75 in 10.0 mi Calm Calm - N/A   Clear
3:55 AM 32.0 °F - 26.6 °F 80% 29.75 in 10.0 mi Calm Calm - N/A   Clear
4:15 AM 32.0 °F - 26.6 °F 80% 29.73 in 10.0 mi Calm Calm - N/A   Clear
4:35 AM 32.0 °F - 26.6 °F 80% 29.72 in 10.0 mi Calm Calm - N/A   Clear
4:55 AM 32.0 °F 28.7 °F 26.6 °F 80% 29.72 in 10.0 mi NNE 3.5 mph - N/A   Clear
5:15 AM 32.0 °F - 28.4 °F 87% 29.71 in 10.0 mi Calm Calm - N/A   Clear
5:35 AM 32.0 °F - 28.4 °F 87% 29.71 in 10.0 mi Calm Calm - N/A   Clear
5:55 AM 32.0 °F - 28.4 °F 87% 29.72 in 10.0 mi Calm Calm - N/A   Clear
6:15 AM 32.0 °F - 26.6 °F 80% 29.71 in 10.0 mi Calm Calm - N/A   Clear
6:35 AM 32.0 °F - 26.6 °F 80% 29.71 in 10.0 mi Calm Calm - N/A   Clear
6:55 AM 30.2 °F 25.4 °F 26.6 °F 86% 29.71 in 10.0 mi SSE 4.6 mph - N/A   Clear
7:15 AM 32.0 °F 27.5 °F 26.6 °F 80% 29.70 in 10.0 mi SE 4.6 mph - N/A   Clear
7:35 AM 32.0 °F - 26.6 °F 80% 29.71 in 10.0 mi Calm Calm - N/A   Clear
7:55 AM 32.0 °F 27.5 °F 28.4 °F 87% 29.70 in 10.0 mi East 4.6 mph - N/A   Clear
8:15 AM 32.0 °F 27.5 °F 28.4 °F 87% 29.69 in 10.0 mi East 4.6 mph - N/A   Clear
8:35 AM 32.0 °F 28.7 °F 28.4 °F 87% 29.70 in 10.0 mi NE 3.5 mph - N/A   Clear
8:55 AM 33.8 °F 30.8 °F 30.2 °F 87% 29.71 in 10.0 mi ENE 3.5 mph - N/A   Clear
9:15 AM 37.4 °F - 32.0 °F 81% 29.71 in 10.0 mi Calm Calm - N/A   Clear
9:35 AM 37.4 °F 32.8 °F 32.0 °F 81% 29.71 in 10.0 mi NNE 5.8 mph - N/A   Clear
9:55 AM 41.0 °F - 32.0 °F 70% 29.71 in 10.0 mi Calm Calm - N/A   Clear
10:15 AM 46.4 °F 44.3 °F 32.0 °F 57% 29.72 in 10.0 mi East 4.6 mph - N/A   Clear
10:35 AM 48.2 °F - 32.0 °F 54% 29.72 in 10.0 mi ENE 5.8 mph - N/A   Clear
10:55 AM 50.0 °F - 33.8 °F 54% 29.73 in 10.0 mi NNW 5.8 mph - N/A   Clear
11:15 AM 50.0 °F - 33.8 °F 54% 29.72 in 10.0 mi North 8.1 mph - N/A   Clear
11:35 AM 53.6 °F - 33.8 °F 47% 29.71 in 10.0 mi NNE 9.2 mph - N/A   Clear
11:55 AM 55.4 °F - 33.8 °F 44% 29.71 in 10.0 mi North 18.4 mph - N/A   Clear
12:15 PM 55.4 °F - 35.6 °F 47% 29.71 in 10.0 mi NNE 18.4 mph - N/A   Clear
12:35 PM 59.0 °F - 33.8 °F 39% 29.71 in 10.0 mi North 27.6 mph 31.1 mph N/A   Clear
12:55 PM 55.4 °F - 33.8 °F 44% 29.71 in 10.0 mi North 26.5 mph 34.5 mph N/A   Clear
1:35 PM 53.6 °F - 33.8 °F 47% 29.72 in 10.0 mi North 31.1 mph 41.4 mph N/A   Clear
2:15 PM 53.6 °F - 33.8 °F 47% 29.74 in 10.0 mi North 35.7 mph 43.7 mph N/A   Scattered Clouds
2:35 PM 51.8 °F - 33.8 °F 50% 29.75 in 10.0 mi North 35.7 mph 42.6 mph N/A   Scattered Clouds
2:55 PM 51.8 °F - 33.8 °F 50% 29.77 in 10.0 mi North 34.5 mph 44.9 mph N/A   Scattered Clouds
3:15 PM 50.0 °F - 33.8 °F 54% 29.78 in 10.0 mi North 31.1 mph 42.6 mph N/A   Scattered Clouds
3:35 PM 48.2 °F - 32.0 °F 54% 29.80 in 7.0 mi North 38.0 mph 46.0 mph N/A   Scattered Clouds
3:55 PM 48.2 °F - 32.0 °F 54% 29.82 in 10.0 mi North 31.1 mph 43.7 mph N/A   Scattered Clouds
4:15 PM 46.4 °F 36.7 °F 32.0 °F 57% 29.84 in 10.0 mi North 33.4 mph 41.4 mph N/A   Mostly Cloudy
4:35 PM 46.4 °F 36.4 °F 32.0 °F 57% 29.86 in 10.0 mi North 35.7 mph 44.9 mph N/A   Overcast
4:55 PM 44.6 °F 34.2 °F 30.2 °F 57% 29.88 in 10.0 mi North 33.4 mph 41.4 mph N/A   Overcast
5:15 PM 44.6 °F 34.1 °F 30.2 °F 57% 29.90 in 10.0 mi North 34.5 mph 40.3 mph N/A   Overcast